Location: Altmatt
(47.1333°N, 8.7000°E)
Time: 03:04:36
(UTC+00:00)

NOSS 3-4 (A) - Pass Details

Date: 13 July 2020
Orbit: 892 x 1320 km, 63.4° (Epoch: 12 July)

Event Time Altitude Azimuth Distance (km) Brightness Sun altitude
Rises 19:48:50 0° 320° (NW) 3,786 8.9 -5.0°
Reaches altitude 10° 19:51:23 10° 323° (NW) 2,889 7.6 -5.3°
Maximum altitude 19:58:16 69° 46° (NE) 1,221 4.0 -6.2°
Drops below altitude 10° 20:05:54 10° 130° (SE) 3,186 5.5 -7.2°
Enters shadow 20:06:21 - 130° (SE) 3,342 5.6 -7.2°
